| time (UTC) | temp F | wind direction | speed MPH | gust MPH | rain 1hr in | rain 24hr in | rain mn in | humidity % | barometer mb |
| 20260507095524 | 54 | 155 | 5.0 | 9.0 | 0.00 | 0.00 | 0.00 | 88 | 1018.2 |
| 20260507094524 | 54 | 138 | 6.0 | 11.0 | 0.00 | 0.00 | 0.00 | 88 | 1018.2 |
| 20260507093525 | 55 | 150 | 4.0 | 11.0 | 0.00 | 0.00 | 0.00 | 87 | 1018.2 |
| 20260507092524 | 55 | 160 | 5.0 | 11.0 | 0.00 | 0.00 | 0.00 | 88 | 1018.1 |
| 20260507091524 | 54 | 121 | 6.0 | 9.0 | 0.00 | 0.00 | 0.00 | 89 | 1018.0 |
| 20260507090524 | 54 | 157 | 5.0 | 11.0 | 0.00 | 0.00 | 0.00 | 88 | 1018.1 |
| 20260507085544 | 55 | 135 | 4.0 | 9.0 | 0.00 | 0.00 | 0.00 | 87 | 1018.2 |
| 20260507084524 | 54 | 172 | 5.0 | 9.0 | 0.00 | 0.00 | 0.00 | 88 | 1018.1 |
| 20260507083544 | 55 | 190 | 4.0 | 11.0 | 0.00 | 0.00 | 0.00 | 87 | 1018.1 |
| 20260507082536 | 55 | 167 | 4.0 | 9.0 | 0.00 | 0.00 | 0.00 | 86 | 1018.0 |
| 20260507081537 | 54 | 186 | 5.0 | 9.0 | 0.00 | 0.00 | 0.00 | 86 | 1017.9 |
| 20260507080524 | 53 | 138 | 6.0 | 11.0 | 0.00 | 0.00 | 0.00 | 89 | 1018.0 |
| 20260507075609 | 54 | 145 | 5.0 | 9.0 | 0.00 | 0.00 | 0.00 | 87 | 1018.0 |
| 20260507074524 | 54 | 191 | 5.0 | 9.0 | 0.00 | 0.00 | 0.00 | 87 | 1018.0 |
| 20260507073524 | 54 | 148 | 5.0 | 9.0 | 0.00 | 0.00 | 0.00 | 88 | 1018.0 |
| 20260507072524 | 54 | 187 | 5.0 | 9.0 | 0.00 | 0.00 | 0.00 | 87 | 1018.0 |
| 20260507071524 | 54 | 153 | 5.0 | 11.0 | 0.00 | 0.00 | 0.00 | 89 | 1017.9 |
| 20260507070544 | 54 | 146 | 5.0 | 11.0 | 0.00 | 0.00 | 0.00 | 88 | 1018.0 |
| 20260507065524 | 54 | 194 | 4.0 | 9.0 | 0.00 | 0.00 | 0.00 | 89 | 1018.0 |
| 20260507064525 | 54 | 180 | 5.0 | 9.0 | 0.00 | 0.00 | 0.00 | 88 | 1018.0 |
| 20260507063536 | 54 | 191 | 5.0 | 11.0 | 0.00 | 0.00 | 0.00 | 86 | 1018.0 |
| 20260507062536 | 54 | 194 | 5.0 | 9.0 | 0.00 | 0.00 | 0.00 | 86 | 1018.0 |
| 20260507061545 | 55 | 181 | 4.0 | 9.0 | 0.00 | 0.00 | 0.00 | 85 | 1017.9 |
| 20260507060536 | 54 | 197 | 5.0 | 9.0 | 0.00 | 0.00 | 0.00 | 86 | 1017.8 |
| 20260507055525 | 54 | 186 | 5.0 | 9.0 | 0.00 | 0.00 | 0.00 | 86 | 1017.7 |
| 20260507054525 | 54 | 202 | 5.0 | 9.0 | 0.00 | 0.00 | 0.00 | 86 | 1017.6 |
| 20260507053556 | 55 | 180 | 4.0 | 9.0 | 0.00 | 0.00 | 0.00 | 86 | 1017.6 |
| 20260507052544 | 55 | 202 | 5.0 | 11.0 | 0.00 | 0.00 | 0.00 | 85 | 1017.5 |
| 20260507051537 | 54 | 187 | 4.0 | 9.0 | 0.00 | 0.00 | 0.00 | 88 | 1017.4 |
| 20260507050616 | 54 | 183 | 4.0 | 7.0 | 0.00 | 0.00 | 0.00 | 87 | 1017.4 |
| 20260507045525 | 53 | 197 | 4.0 | 9.0 | 0.00 | 0.00 | 0.00 | 88 | 1017.4 |
| 20260507044524 | 53 | 180 | 4.0 | 9.0 | 0.00 | 0.00 | 0.00 | 89 | 1017.2 |
| 20260507043524 | 52 | 192 | 3.0 | 7.0 | 0.00 | 0.00 | 0.00 | 91 | 1017.1 |
| 20260507042544 | 51 | 157 | 4.0 | 7.0 | 0.00 | 0.00 | 0.00 | 91 | 1017.1 |
| 20260507041645 | 51 | 192 | 4.0 | 7.0 | 0.00 | 0.00 | 0.00 | 91 | 1016.9 |
| 20260507040524 | 51 | 193 | 4.0 | 9.0 | 0.00 | 0.00 | 0.00 | 92 | 1016.9 |
| 20260507035536 | 51 | 157 | 3.0 | 7.0 | 0.00 | 0.00 | 0.00 | 92 | 1017.0 |
| 20260507034524 | 51 | 192 | 3.0 | 7.0 | 0.00 | 0.00 | 0.00 | 92 | 1017.0 |
| 20260507033524 | 51 | 190 | 3.0 | 7.0 | 0.00 | 0.00 | 0.00 | 92 | 1016.8 |
| 20260507032524 | 51 | 192 | 4.0 | 9.0 | 0.00 | 0.00 | 0.00 | 93 | 1016.8 |
| 20260507031524 | 51 | 187 | 4.0 | 7.0 | 0.00 | 0.00 | 0.00 | 93 | 1016.7 |
| 20260507030524 | 51 | 189 | 4.0 | 9.0 | 0.00 | 0.00 | 0.00 | 94 | 1016.7 |
| 20260507025524 | 51 | 195 | 3.0 | 7.0 | 0.00 | 0.00 | 0.00 | 95 | 1016.7 |
| 20260507024536 | 51 | 200 | 5.0 | 7.0 | 0.00 | 0.00 | 0.00 | 95 | 1016.7 |
| 20260507023545 | 51 | 203 | 4.0 | 9.0 | 0.00 | 0.00 | 0.00 | 95 | 1016.6 |
| 20260507022525 | 51 | 167 | 3.0 | 7.0 | 0.00 | 0.00 | 0.00 | 96 | 1016.5 |
| 20260507021549 | 51 | 204 | 3.0 | 7.0 | 0.00 | 0.00 | 0.00 | 96 | 1016.5 |
| 20260507020544 | 50 | 201 | 2.0 | 7.0 | 0.00 | 0.00 | 0.00 | 96 | 1016.5 |
| 20260507015544 | 51 | 193 | 3.0 | 7.0 | 0.00 | 0.00 | 0.00 | 95 | 1016.5 |
| 20260507014524 | 51 | 196 | 2.0 | 7.0 | 0.00 | 0.00 | 0.00 | 95 | 1016.5 |
| 20260507013524 | 51 | 205 | 2.0 | 4.0 | 0.00 | 0.00 | 0.00 | 94 | 1016.3 |
| 20260507012524 | 51 | 187 | 2.0 | 7.0 | 0.00 | 0.00 | 0.00 | 94 | 1016.4 |
| 20260507011524 | 51 | 201 | 4.0 | 9.0 | 0.00 | 0.00 | 0.00 | 94 | 1016.4 |
| 20260507010536 | 51 | 183 | 5.0 | 7.0 | 0.00 | 0.00 | 0.00 | 95 | 1016.4 |
| 20260507005524 | 51 | 207 | 3.0 | 7.0 | 0.00 | 0.00 | 0.00 | 95 | 1016.3 |
| 20260507004524 | 51 | 207 | 2.0 | 7.0 | 0.00 | 0.00 | 0.00 | 95 | 1016.3 |
| 20260507003524 | 51 | 201 | 4.0 | 7.0 | 0.00 | 0.00 | 0.00 | 96 | 1016.3 |
| 20260507002524 | 51 | 176 | 2.0 | 4.0 | 0.00 | 0.00 | 0.00 | 96 | 1016.3 |
| 20260507001536 | 50 | 200 | 2.0 | 4.0 | 0.00 | 0.00 | 0.00 | 96 | 1016.3 |
| 20260507000524 | 50 | 188 | 4.0 | 7.0 | 0.00 | 0.00 | 0.00 | 95 | 1016.3 |
| 20260506235536 | 50 | 185 | 4.0 | 7.0 | 0.00 | 0.00 | 0.00 | 95 | 1016.3 |
| 20260506234524 | 51 | 188 | 2.0 | 4.0 | 0.00 | 0.00 | 0.00 | 94 | 1016.3 |
| 20260506233536 | 51 | 192 | 2.0 | 7.0 | 0.00 | 0.00 | 0.00 | 94 | 1016.4 |
| 20260506232536 | 51 | 174 | 3.0 | 7.0 | 0.00 | 0.00 | 0.00 | 93 | 1016.4 |
| 20260506231525 | 51 | 185 | 5.0 | 11.0 | 0.00 | 0.00 | 0.00 | 94 | 1016.5 |
| 20260506230524 | 51 | 202 | 5.0 | 9.0 | 0.00 | 0.00 | 0.00 | 94 | 1016.6 |
| 20260506225525 | 51 | 198 | 5.0 | 9.0 | 0.00 | 0.00 | 0.00 | 93 | 1016.6 |
| 20260506224524 | 51 | 200 | 6.0 | 9.0 | 0.00 | 0.00 | 0.00 | 93 | 1016.7 |
| 20260506223536 | 51 | 196 | 3.0 | 9.0 | 0.00 | 0.00 | 0.00 | 93 | 1016.7 |
| 20260506222525 | 51 | 192 | 5.0 | 9.0 | 0.00 | 0.00 | 0.00 | 93 | 1016.7 |
| 20260506221524 | 51 | 194 | 4.0 | 11.0 | 0.00 | 0.00 | 0.00 | 93 | 1016.8 |
| 20260506220524 | 51 | 206 | 3.0 | 4.0 | 0.00 | 0.00 | 0.00 | 93 | 1016.9 |
| 20260506215525 | 51 | 184 | 3.0 | 7.0 | 0.00 | 0.00 | 0.00 | 93 | 1016.8 |
| 20260506214545 | 51 | 162 | 2.0 | 7.0 | 0.00 | 0.00 | 0.00 | 93 | 1016.9 |
| 20260506213524 | 51 | 186 | 3.0 | 4.0 | 0.00 | 0.00 | 0.00 | 94 | 1016.8 |
| 20260506212556 | 51 | 191 | 2.0 | 4.0 | 0.00 | 0.00 | 0.00 | 94 | 1016.8 |
| 20260506211536 | 51 | 172 | 3.0 | 7.0 | 0.00 | 0.00 | 0.00 | 94 | 1016.7 |
| 20260506210525 | 51 | 173 | 4.0 | 9.0 | 0.00 | 0.00 | 0.00 | 93 | 1016.7 |
| 20260506205537 | 51 | 194 | 5.0 | 9.0 | 0.00 | 0.00 | 0.00 | 94 | 1016.7 |
| 20260506204524 | 51 | 185 | 4.0 | 9.0 | 0.00 | 0.00 | 0.00 | 94 | 1016.7 |
| 20260506203545 | 51 | 181 | 5.0 | 7.0 | 0.00 | 0.00 | 0.00 | 94 | 1016.8 |
| 20260506202525 | 51 | 194 | 4.0 | 9.0 | 0.00 | 0.00 | 0.00 | 95 | 1016.8 |
| 20260506201524 | 51 | 204 | 4.0 | 9.0 | 0.00 | 0.00 | 0.00 | 95 | 1016.7 |
| 20260506200524 | 51 | 194 | 4.0 | 7.0 | 0.00 | 0.00 | 0.00 | 95 | 1016.7 |
| 20260506195544 | 51 | 186 | 4.0 | 9.0 | 0.00 | 0.00 | 0.00 | 95 | 1016.7 |
| 20260506194524 | 51 | 201 | 3.0 | 5.0 | 0.00 | 0.00 | 0.00 | 96 | 1016.7 |
| 20260506193545 | 51 | 193 | 3.0 | 7.0 | 0.00 | 0.00 | 0.00 | 96 | 1016.6 |
| 20260506192536 | 51 | 189 | 4.0 | 7.0 | 0.00 | 0.00 | 0.00 | 96 | 1016.6 |
| 20260506191645 | 51 | 189 | 4.0 | 7.0 | 0.00 | 0.00 | 0.00 | 97 | 1016.5 |
| 20260506190536 | 51 | 190 | 3.0 | 7.0 | 0.00 | 0.00 | 0.00 | 97 | 1016.5 |
| 20260506185524 | 51 | 181 | 4.0 | 7.0 | 0.00 | 0.00 | 0.00 | 97 | 1016.4 |
| 20260506184524 | 51 | 189 | 3.0 | 7.0 | 0.00 | 0.00 | 0.00 | 97 | 1016.3 |
| 20260506183524 | 51 | 173 | 2.0 | 4.0 | 0.00 | 0.00 | 0.00 | 97 | 1016.3 |
| 20260506182524 | 51 | 179 | 3.0 | 7.0 | 0.00 | 0.00 | 0.00 | 97 | 1016.3 |
| 20260506181525 | 51 | 194 | 2.0 | 4.0 | 0.00 | 0.00 | 0.00 | 97 | 1016.2 |
| 20260506180525 | 51 | 187 | 1.0 | 4.0 | 0.00 | 0.00 | 0.00 | 97 | 1016.1 |
| 20260506175525 | 51 | 192 | 2.0 | 4.0 | 0.00 | 0.00 | 0.00 | 96 | 1016.0 |
| 20260506174525 | 51 | 189 | 2.0 | 4.0 | 0.00 | 0.00 | 0.00 | 96 | 1015.9 |
| 20260506173524 | 51 | 191 | 2.0 | 4.0 | 0.00 | 0.00 | 0.00 | 95 | 1015.8 |
| 20260506172524 | 51 | 194 | 1.0 | 4.0 | 0.00 | 0.00 | 0.00 | 95 | 1015.8 |
| 20260506171525 | 51 | 201 | 1.0 | 4.0 | 0.00 | 0.00 | 0.00 | 95 | 1015.8 |
| 20260506170545 | 51 | 185 | 2.0 | 4.0 | 0.00 | 0.00 | 0.00 | 94 | 1015.8 |
| 20260506165524 | 52 | 153 | 0.0 | 4.0 | 0.00 | 0.00 | 0.00 | 93 | 1015.8 |
| 20260506164524 | 52 | 187 | 2.0 | 4.0 | 0.00 | 0.00 | 0.00 | 92 | 1015.8 |
| 20260506163545 | 52 | 201 | 2.0 | 7.0 | 0.00 | 0.00 | 0.00 | 92 | 1015.8 |
| 20260506162524 | 52 | 241 | 1.0 | 4.0 | 0.00 | 0.00 | 0.00 | 91 | 1015.7 |
| 20260506161536 | 53 | 189 | 2.0 | 4.0 | 0.00 | 0.00 | 0.00 | 91 | 1015.9 |
| 20260506160536 | 53 | 193 | 2.0 | 7.0 | 0.00 | 0.00 | 0.00 | 90 | 1015.9 |
| 20260506155524 | 53 | 180 | 2.0 | 7.0 | 0.00 | 0.00 | 0.00 | 89 | 1015.9 |
| 20260506154525 | 53 | 204 | 2.0 | 4.0 | 0.00 | 0.00 | 0.00 | 89 | 1016.0 |
| 20260506153525 | 53 | 195 | 3.0 | 7.0 | 0.00 | 0.00 | 0.00 | 88 | 1016.0 |
| 20260506152549 | 54 | 194 | 3.0 | 7.0 | 0.00 | 0.00 | 0.00 | 88 | 1016.1 |
| 20260506151525 | 54 | 136 | 3.0 | 7.0 | 0.00 | 0.00 | 0.00 | 88 | 1016.2 |
| 20260506150524 | 54 | 178 | 3.0 | 7.0 | 0.00 | 0.00 | 0.00 | 87 | 1016.2 |
| 20260506145525 | 54 | 176 | 4.0 | 7.0 | 0.00 | 0.00 | 0.00 | 86 | 1016.2 |
| 20260506144524 | 56 | 193 | 4.0 | 7.0 | 0.00 | 0.00 | 0.00 | 83 | 1016.2 |
| 20260506143524 | 56 | 178 | 4.0 | 7.0 | 0.00 | 0.00 | 0.00 | 83 | 1016.2 |
| 20260506142549 | 55 | 139 | 3.0 | 7.0 | 0.00 | 0.00 | 0.00 | 82 | 1016.2 |
| 20260506141525 | 57 | 185 | 3.0 | 7.0 | 0.00 | 0.00 | 0.00 | 80 | 1016.2 |
| 20260506140536 | 56 | 190 | 5.0 | 11.0 | 0.00 | 0.00 | 0.00 | 80 | 1016.2 |
| 20260506135525 | 56 | 155 | 4.0 | 7.0 | 0.00 | 0.00 | 0.00 | 83 | 1016.2 |
| 20260506134536 | 57 | 204 | 4.0 | 9.0 | 0.00 | 0.00 | 0.00 | 80 | 1016.3 |
| 20260506133525 | 57 | 201 | 3.0 | 7.0 | 0.00 | 0.00 | 0.00 | 81 | 1016.3 |
| 20260506132524 | 58 | 191 | 4.0 | 7.0 | 0.00 | 0.00 | 0.00 | 76 | 1016.3 |
| 20260506131545 | 57 | 202 | 4.0 | 9.0 | 0.00 | 0.00 | 0.00 | 77 | 1016.3 |
| 20260506130525 | 55 | 145 | 5.0 | 9.0 | 0.00 | 0.00 | 0.00 | 80 | 1016.3 |
| 20260506125524 | 57 | 144 | 4.0 | 7.0 | 0.00 | 0.00 | 0.00 | 77 | 1016.4 |
| 20260506124608 | 57 | 197 | 4.0 | 7.0 | 0.00 | 0.00 | 0.00 | 78 | 1016.4 |
| 20260506123525 | 58 | 181 | 4.0 | 7.0 | 0.00 | 0.00 | 0.00 | 76 | 1016.5 |
| 20260506122525 | 57 | 156 | 7.0 | 15.0 | 0.00 | 0.00 | 0.00 | 77 | 1016.4 |
| 20260506121525 | 56 | 138 | 4.0 | 9.0 | 0.00 | 0.00 | 0.00 | 77 | 1016.6 |
| 20260506120524 | 58 | 202 | 6.0 | 15.0 | 0.00 | 0.00 | 0.00 | 74 | 1016.7 |
| 20260506115524 | 57 | 188 | 5.0 | 15.0 | 0.00 | 0.00 | 0.00 | 75 | 1016.7 |
| 20260506114525 | 56 | 141 | 6.0 | 15.0 | 0.00 | 0.00 | 0.00 | 78 | 1016.8 |
| 20260506113557 | 56 | 139 | 4.0 | 9.0 | 0.00 | 0.00 | 0.00 | 78 | 1016.8 |
| 20260506112524 | 57 | 175 | 4.0 | 7.0 | 0.00 | 0.00 | 0.00 | 76 | 1016.9 |
| 20260506111525 | 56 | 135 | 4.0 | 7.0 | 0.00 | 0.00 | 0.00 | 80 | 1016.9 |
| 20260506110524 | 57 | 214 | 4.0 | 7.0 | 0.00 | 0.00 | 0.00 | 80 | 1017.0 |
| 20260506105536 | 56 | 149 | 4.0 | 9.0 | 0.00 | 0.00 | 0.00 | 82 | 1017.1 |
| 20260506104524 | 56 | 190 | 5.0 | 9.0 | 0.00 | 0.00 | 0.00 | 82 | 1017.1 |
| 20260506103525 | 55 | 173 | 5.0 | 9.0 | 0.00 | 0.00 | 0.00 | 83 | 1017.1 |
| 20260506102548 | 56 | 190 | 5.0 | 11.0 | 0.00 | 0.00 | 0.00 | 82 | 1017.1 |
| 20260506101525 | 56 | 156 | 4.0 | 7.0 | 0.00 | 0.00 | 0.00 | 83 | 1017.0 |
| 20260506100537 | 56 | 157 | 5.0 | 9.0 | 0.00 | 0.00 | 0.00 | 83 | 1017.1 |